Weather History for KPNM - May, 2013

Change the Weather History Date:

Monday, May 6, 2013

  Actual Average Record
Temperature  
Mean Temperature 55 °F -  
Max Temperature 73 °F 62 °F 82 °F (2000)
Min Temperature 37 °F 40 °F 35 °F (2000)
Degree Days  
Heating Degree Days 10    
Growing Degree Days 5 (Base 50)    
Moisture  
Dew Point 42 °F    
Average Humidity 63    
Maximum Humidity 93    
Minimum Humidity 33    
Precipitation  
Precipitation 0.00 in - - ()
Sea Level Pressure  
Sea Level Pressure 30.08 in    
Wind  
Wind Speed 2 mph (North)    
Max Wind Speed 6 mph    
Max Gust Speed -    
Visibility 10 miles    
Events      
Averages and records for this station are not official NWS values.
T = Trace of Precipitation, MM = Missing Value Source: NWS Daily Summary

Daily Weather History Graph

Daily Weather History Graph

Search for Another Location

Airport or City:

Trip Planner

Search our weather history database for the weather conditions in past years. The results will help you decide how hot, cold, wet, or windy it might be!

Date:

Astronomy

May. 06, 2013 Rise Set
Actual Time 5:54 AM CDT 8:28 PM CDT
Civil Twilight 5:21 AM CDT 9:01 PM CDT
Nautical Twilight 4:39 AM CDT 9:43 PM CDT
Astronomical Twilight 3:51 AM CDT 10:32 PM CDT
Moon 4:06 AM CDT (5/6) 5:20 PM CDT (5/6)
Length of Visible Light 15h 40m
Length of Day
14h 33m
Waning Crescent, 11% of the Moon is Illuminated
May 6
Waning Crescent
May 9
New
May 17
First Quarter
May 24
Full
May 31
Last Quarter

Hourly Weather History & Observations

Time (CDT) Temp. Windchill Dew Point Humidity Pressure Visibility Wind Dir Wind Speed Gust Speed Precip Events Conditions
12:11 AM 51.8 °F - 41.0 °F 67% 30.10 in 10.0 mi NE 3.5 mph - N/A   Clear
12:32 AM 48.2 °F - 41.0 °F 76% 30.10 in 10.0 mi NE 4.6 mph - N/A   Clear
12:51 AM 48.2 °F - 41.0 °F 76% 30.10 in 10.0 mi NE 3.5 mph - N/A   Clear
1:11 AM 48.2 °F - 41.0 °F 76% 30.10 in 10.0 mi ENE 3.5 mph - N/A   Clear
1:32 AM 46.4 °F - 39.2 °F 76% 30.10 in 10.0 mi Calm Calm - N/A   Clear
1:51 AM 44.6 °F - 39.2 °F 81% 30.10 in 10.0 mi Calm Calm - N/A   Clear
2:11 AM 42.8 °F - 39.2 °F 87% 30.10 in 10.0 mi Calm Calm - N/A   Clear
2:32 AM 44.6 °F 43.1 °F 39.2 °F 81% 30.10 in 10.0 mi North 3.5 mph - N/A   Clear
2:51 AM 42.8 °F - 37.4 °F 81% 30.10 in 10.0 mi Calm Calm - N/A   Clear
3:11 AM 42.8 °F - 37.4 °F 81% 30.10 in 10.0 mi Calm Calm - N/A   Clear
3:32 AM 41.0 °F - 37.4 °F 87% 30.10 in 10.0 mi Calm Calm - N/A   Clear
3:51 AM 41.0 °F - 37.4 °F 87% 30.10 in 10.0 mi Calm Calm - N/A   Clear
4:11 AM 41.0 °F - 37.4 °F 87% 30.10 in 10.0 mi Calm Calm - N/A   Clear
4:32 AM 39.2 °F - 37.4 °F 93% 30.10 in 10.0 mi Calm Calm - N/A   Clear
4:51 AM 37.4 °F - 35.6 °F 93% 30.10 in 10.0 mi Calm Calm - N/A   Clear
5:11 AM 37.4 °F - 35.6 °F 93% 30.11 in 10.0 mi Calm Calm - N/A   Clear
5:32 AM 37.4 °F 34.9 °F 35.6 °F 93% 30.11 in 10.0 mi NW 3.5 mph - N/A   Clear
5:51 AM 37.4 °F - 35.6 °F 93% 30.12 in 10.0 mi Calm Calm - N/A   Clear
6:11 AM 37.4 °F 34.9 °F 35.6 °F 93% 30.11 in 10.0 mi North 3.5 mph - N/A   Clear
6:31 AM 39.2 °F - 37.4 °F 93% 30.12 in 10.0 mi Calm Calm - N/A   Clear
6:51 AM 41.0 °F 39.0 °F 37.4 °F 87% 30.12 in 10.0 mi North 3.5 mph - N/A   Clear
7:11 AM 42.8 °F 41.1 °F 37.4 °F 81% 30.13 in 10.0 mi NNE 3.5 mph - N/A   Clear
7:31 AM 44.6 °F 43.1 °F 39.2 °F 81% 30.13 in 10.0 mi North 3.5 mph - N/A   Clear
7:51 AM 44.6 °F 42.2 °F 39.2 °F 81% 30.13 in 10.0 mi North 4.6 mph - N/A   Clear
8:11 AM 46.4 °F 44.3 °F 39.2 °F 76% 30.13 in 10.0 mi North 4.6 mph - N/A   Clear
8:31 AM 48.2 °F - 39.2 °F 71% 30.13 in 10.0 mi Calm Calm - N/A   Clear
8:51 AM 50.0 °F - 39.2 °F 66% 30.13 in 10.0 mi North 3.5 mph - N/A   Clear
9:11 AM 51.8 °F - 41.0 °F 67% 30.13 in 10.0 mi North 4.6 mph - N/A   Clear
9:31 AM 51.8 °F - 41.0 °F 67% 30.13 in 10.0 mi Calm Calm - N/A   Clear
9:51 AM 53.6 °F - 42.8 °F 67% 30.12 in 10.0 mi Calm Calm - N/A   Clear
10:11 AM 55.4 °F - 42.8 °F 63% 30.12 in 10.0 mi Calm Calm - N/A   Clear
10:31 AM 57.2 °F - 42.8 °F 59% 30.12 in 10.0 mi Calm Calm - N/A   Clear
10:51 AM 60.8 °F - 44.6 °F 55% 30.11 in 10.0 mi NE 3.5 mph - N/A   Clear
11:11 AM 62.6 °F - 44.6 °F 52% 30.11 in 10.0 mi Calm Calm - N/A   Clear
11:31 AM 64.4 °F - 44.6 °F 49% 30.11 in 10.0 mi Calm Calm - N/A   Clear
11:51 AM 64.4 °F - 44.6 °F 49% 30.10 in 10.0 mi NE 3.5 mph - N/A   Clear
12:11 PM 66.2 °F - 46.4 °F 49% 30.09 in 10.0 mi NE 5.8 mph - N/A   Clear
12:31 PM 66.2 °F - 46.4 °F 49% 30.09 in 10.0 mi WSW 3.5 mph - N/A   Clear
12:52 PM 68.0 °F - 46.4 °F 46% 30.09 in 10.0 mi Calm Calm - N/A   Clear
1:11 PM 68.0 °F - 46.4 °F 46% 30.08 in 10.0 mi East 4.6 mph - N/A   Clear
1:32 PM 69.8 °F - 46.4 °F 43% 30.08 in 10.0 mi ENE 4.6 mph - N/A   Clear
1:51 PM 69.8 °F - 46.4 °F 43% 30.07 in 10.0 mi NNW 3.5 mph - N/A   Clear
2:11 PM 68.0 °F - 46.4 °F 46% 30.07 in 10.0 mi Calm Calm - N/A   Clear
2:32 PM 71.6 °F - 46.4 °F 41% 30.06 in 10.0 mi Calm Calm - N/A   Mostly Cloudy
2:51 PM 71.6 °F - 44.6 °F 38% 30.05 in 10.0 mi SW 4.6 mph - N/A   Scattered Clouds
3:11 PM 71.6 °F - 44.6 °F 38% 30.05 in 10.0 mi WNW 4.6 mph - N/A   Scattered Clouds
3:32 PM 71.6 °F - 44.6 °F 38% 30.04 in 10.0 mi North 3.5 mph - N/A   Mostly Cloudy
3:51 PM 71.6 °F - 42.8 °F 35% 30.04 in 10.0 mi WSW 5.8 mph - N/A   Mostly Cloudy
4:11 PM 69.8 °F - 42.8 °F 38% 30.03 in 10.0 mi Calm Calm - N/A   Mostly Cloudy
4:32 PM 71.6 °F - 44.6 °F 38% 30.03 in 10.0 mi WSW 5.8 mph - N/A   Overcast
4:51 PM 71.6 °F - 44.6 °F 38% 30.03 in 10.0 mi Calm Calm - N/A   Overcast
5:11 PM 71.6 °F - 42.8 °F 35% 30.03 in 10.0 mi South 3.5 mph - N/A   Overcast
5:32 PM 71.6 °F - 42.8 °F 35% 30.02 in 10.0 mi Calm Calm - N/A   Scattered Clouds
5:51 PM 73.4 °F - 42.8 °F 33% 30.02 in 10.0 mi Calm Calm - N/A   Scattered Clouds
6:11 PM 71.6 °F - 42.8 °F 35% 30.02 in 10.0 mi Calm Calm - N/A   Clear
6:31 PM 71.6 °F - 42.8 °F 35% 30.02 in 10.0 mi Calm Calm - N/A   Scattered Clouds
6:51 PM 69.8 °F - 42.8 °F 38% 30.02 in 10.0 mi West 5.8 mph - N/A   Clear
7:11 PM 69.8 °F - 44.6 °F 40% 30.02 in 10.0 mi West 3.5 mph - N/A   Mostly Cloudy
7:31 PM 69.8 °F - 44.6 °F 40% 30.02 in 10.0 mi Calm Calm - N/A   Scattered Clouds
7:51 PM 66.2 °F - 44.6 °F 46% 30.02 in 10.0 mi Calm Calm - N/A   Clear
8:12 PM 66.2 °F - 44.6 °F 46% 30.02 in 10.0 mi Calm Calm - N/A   Clear
8:31 PM 62.6 °F - 46.4 °F 55% 30.02 in 10.0 mi Calm Calm - N/A   Clear
8:51 PM 60.8 °F - 46.4 °F 59% 30.02 in 10.0 mi Calm Calm - N/A   Clear
9:12 PM 57.2 °F - 48.2 °F 72% 30.02 in 10.0 mi Calm Calm - N/A   Clear
9:51 PM 55.4 °F - 44.6 °F 67% 30.03 in 10.0 mi Calm Calm - N/A   Clear
10:12 PM 55.4 °F - 44.6 °F 67% 30.04 in 10.0 mi Calm Calm - N/A   Clear
10:31 PM 53.6 °F - 44.6 °F 72% 30.04 in 10.0 mi Calm Calm - N/A   Clear
10:51 PM 53.6 °F - 46.4 °F 77% 30.04 in 10.0 mi Calm Calm - N/A   Clear
11:11 PM 51.8 °F - 44.6 °F 76% 30.04 in 10.0 mi Calm Calm - N/A   Clear
11:31 PM 51.8 °F - 46.4 °F 82% 30.04 in 10.0 mi Calm Calm - N/A   Clear
11:52 PM 51.8 °F - 46.4 °F 82% 30.04 in - Calm Calm - N/A   Clear